QPF
0.00 0.00 0.00 0.00 0.00 0.00 0.00 0.00 0.00 0.00 0.00 0.00 0.00 0.00 0.00 0.00 0.00 0.00 0.00 0.00 0.00 0.00 0.00 0.00 0.00 0.00 0.00 0.00 0.00 0.00 0.00 0.00 0.00 0.00 0.00 0.00 0.00 0.00 0.00 0.00 0.00 0.00 0.00 0.00 0.00 0.00 0.00 0.00 0.00
0.00 0.00 0.00 0.00 0.00 0.00 0.00 0.00 0.00 0.00 0.00 0.00 0.00 0.00 0.00 0.00 0.00 0.00 0.00 0.00 0.00 0.00 0.00 0.00 0.00 0.00 0.00 0.00 0.00 0.00 0.01 0.00 0.00 0.00 0.00 0.00 0.00 0.00 0.00 0.00 0.00 0.01 0.00 0.00 0.00 0.00 0.00 0.00 0.00
0.00 0.00 0.00 0.00 0.00 0.00 0.00 0.00 0.00 0.00 0.00 0.00 0.00 0.00 0.00 0.00 0.00 0.00 0.00 0.00 0.00 0.00 0.00 0.00 0.00 0.00 0.00 0.00 0.00 0.00 0.01 0.01 0.00 0.00 0.00 0.00 0.00 0.00 0.00 0.00 0.00 0.01 0.01 0.00 0.00 0.00 0.00 0.00 0.00
0.00 0.00 0.00 0.00 0.00 0.00 0.00 0.00 0.00 0.00 0.00 0.00 0.00 0.00 0.00 0.00 0.00 0.00 0.00 0.00 0.00 0.00 0.00 0.00 0.01 0.00 0.00 0.00 0.00 0.00 0.01 0.01 0.00 0.00 0.00 0.00 0.00 0.00 0.00 0.00 0.00 0.00 0.01 0.00 0.00 0.00 0.00 0.00 0.00
0.00 0.00 0.00 0.00 0.00 0.00 0.00 0.00 0.00 0.00 0.00 0.00 0.00 0.00 0.00 0.00 0.00 0.00 0.00 0.00 0.00 0.00 0.00 0.00 0.01 0.00 0.00 0.00 0.00 0.00 0.00 0.00 0.00 0.00 0.00 0.00 0.00 0.00 0.00 0.00 0.00 0.00 0.00 0.00 0.00 0.00 0.00 0.00 0.00
0.00 0.00 0.00 0.00 0.00 0.00 0.00 0.00 0.00 0.00 0.00 0.00 0.00 0.00 0.00 0.00 0.00 0.00 0.00 0.00 0.00 0.00 0.00 0.00 0.00 0.00 0.00 0.00 0.00 0.00 0.00 0.00 0.00 0.00 0.00 0.00 0.00 0.00 0.00 0.00 0.00 0.00 0.00 0.00 0.00 0.00 0.00 0.00 0.00
0.00 0.00 0.00 0.00 0.00 0.00 0.00 0.00 0.00 0.00 0.00 0.00 0.00 0.00 0.00 0.00 0.00 0.00 0.00 0.00 0.00 0.00 0.00 0.00 0.00 0.00 0.00 0.00 0.00 0.00 0.00 0.00 0.00 0.00 0.01 0.00 0.00 0.00 0.00 0.00 0.00 0.00 0.00 0.00 0.00 0.00 0.00 0.00 0.00
0.00 0.00 0.00 0.00 0.00 0.00 0.00 0.00 0.00 0.00 0.00 0.00 0.00 0.00 0.00 0.00 0.00 0.00 0.00 0.00 0.00 0.00 0.00 0.00 0.00 0.00 0.00 0.00 0.00 0.00 0.00 0.00 0.00 0.00 0.00 0.00 0.00 0.00 0.00 0.00 0.00 0.00 0.00 0.00 0.00 0.00 0.00 0.00 0.00
0.00 0.00 0.00 0.00 0.00 0.00 0.00 0.00 0.00 0.00 0.00 0.00 0.00 0.00 0.00 0.00 0.00 0.00 0.00 0.00 0.00 0.00 0.00 0.00 0.00 0.00 0.00 0.00 0.00 0.00 0.00 0.00 0.00 0.00 0.00 0.00 0.00 0.00 0.00 0.00 0.00 0.00 0.00 0.00 0.00 0.00 0.00 0.00 0.00
0.00 0.00 0.00 0.00 0.00 0.00 0.00 0.00 0.00 0.00 0.00 0.00 0.00 0.00 0.00 0.00 0.00 0.00 0.00 0.00 0.00 0.00 0.00 0.00 0.00 0.00 0.00 0.00 0.00 0.00 0.00 0.00 0.00 0.00 0.00 0.00 0.00 0.00 0.00 0.00 0.00 0.00 0.00 0.00 0.00 0.00 0.00 0.00 0.00
0.00 0.00 0.00 0.00 0.00 0.00 0.00 0.00 0.00 0.00 0.00 0.00 0.00 0.00 0.00 0.00 0.00 0.00 0.00 0.00 0.00 0.00 0.00 0.00 0.00 0.00 0.00 0.00 0.00 0.00 0.00 0.00 0.00 0.00 0.00 0.00 0.00 0.00 0.00 0.00 0.00 0.00 0.00 0.00 0.00 0.00 0.00 0.00 0.00
0.00 0.00 0.00 0.00 0.00 0.00 0.00 0.00 0.00 0.00 0.00 0.00 0.00 0.00 0.00 0.00 0.00 0.00 0.00 0.00 0.00 0.00 0.00 0.00 0.00 0.00 0.00 0.00 0.00 0.00 0.00 0.00 0.00 0.00 0.00 0.00 0.00 0.00 0.00 0.00 0.00 0.00 0.00 0.00 0.00 0.00 0.00 0.00 0.00
0.00 0.00 0.00 0.00 0.00 0.00 0.00 0.00 0.00 0.00 0.00 0.00 0.00 0.00 0.00 0.00 0.00 0.00 0.00 0.00 0.00 0.00 0.00 0.00 0.00 0.00 0.00 0.00 0.00 0.00 0.00 0.00 0.00 0.00 0.00 0.00 0.00 0.00 0.00 0.00 0.00 0.00 0.00 0.00 0.00 0.00 0.00 0.00 0.00
0.00 0.00 0.00 0.00 0.00 0.00 0.00 0.00 0.00 0.00 0.00 0.00 0.00 0.00 0.00 0.00 0.00 0.00 0.00 0.00 0.00 0.00 0.00 0.00 0.00 0.00 0.00 0.00 0.00 0.00 0.00 0.00 0.00 0.00 0.00 0.00 0.00 0.00 0.00 0.00 0.00 0.00 0.00 0.00 0.00 0.00 0.00 0.00 0.00
0.00 0.00 0.00 0.00 0.00 0.00 0.00 0.00 0.00 0.00 0.00 0.00 0.00 0.00 0.00 0.00 0.00 0.00 0.00 0.00 0.00 0.00 0.00 0.00 0.00 0.00 0.00 0.00 0.00 0.00 0.00 0.00 0.00 0.00 0.00 0.00 0.00 0.00 0.00 0.00 0.00 0.00 0.00 0.00 0.00 0.00 0.00 0.00 0.00
0.00 0.00 0.00 0.00 0.00 0.00 0.00 0.00 0.00 0.00 0.00 0.00 0.00 0.00 0.00 0.00 0.00 0.00 0.00 0.00 0.00 0.00 0.00 0.00 0.00 0.00 0.00 0.00 0.00 0.00 0.00 0.00 0.00 0.00 0.00 0.00 0.00 0.00 0.00 0.00 0.00 0.00 0.00 0.00 0.00 0.00 0.00 0.00 0.00
0.00 0.00 0.00 0.00 0.00 0.00 0.00 0.00 0.00 0.00 0.00 0.00 0.00 0.00 0.00 0.00 0.00 0.00 0.00 0.00 0.00 0.00 0.00 0.00 0.00 0.00 0.00 0.00 0.00 0.00 0.00 0.00 0.00 0.00 0.00 0.00 0.00 0.00 0.00 0.00 0.00 0.00 0.00 0.00 0.00 0.00 0.00 0.00 0.00
0.00 0.00 0.00 0.00 0.00 0.00 0.00 0.00 0.00 0.00 0.00 0.00 0.00 0.00 0.00 0.00 0.00 0.00 0.00 0.00 0.00 0.00 0.00 0.00 0.00 0.00 0.00 0.00 0.00 0.00 0.00 0.00 0.00 0.00 0.00 0.00 0.00 0.00 0.00 0.00 0.00 0.00 0.00 0.00 0.00 0.00 0.00 0.00 0.00
0.00 0.00 0.00 0.00 0.00 0.00 0.00 0.00 0.00 0.00 0.00 0.00 0.00 0.00 0.00 0.00 0.00 0.00 0.00 0.00 0.00 0.00 0.00 0.00 0.00 0.00 0.00 0.00 0.00 0.00 0.00 0.00 0.00 0.00 0.00 0.00 0.00 0.00 0.00 0.00 0.00 0.00 0.00 0.00 0.00 0.00 0.00 0.00 0.00
0.00 0.00 0.00 0.00 0.00 0.00 0.00 0.00 0.00 0.00 0.00 0.00 0.00 0.00 0.00 0.00 0.00 0.00 0.00 0.00 0.00 0.00 0.00 0.00 0.00 0.00 0.00 0.00 0.00 0.00 0.00 0.00 0.00 0.00 0.01 0.00 0.00 0.00 0.00 0.00 0.00 0.00 0.00 0.00 0.00 0.00 0.00 0.00 0.00
0.00 0.00 0.00 0.00 0.00 0.00 0.00 0.00 0.00 0.00 0.00 0.00 0.00 0.00 0.00 0.00 0.00 0.00 0.00 0.00 0.00 0.00 0.00 0.00 0.00 0.00 0.00 0.00 0.00 0.00 0.00 0.00 0.00 0.00 0.01 0.02 0.02 0.02 0.01 0.00 0.00 0.00 0.00 0.00 0.00 0.00 0.00 0.00 0.00
0.00 0.00 0.00 0.00 0.00 0.00 0.00 0.00 0.00 0.00 0.00 0.00 0.00 0.00 0.00 0.00 0.00 0.00 0.00 0.00 0.00 0.00 0.00 0.00 0.00 0.00 0.00 0.00 0.00 0.00 0.00 0.01 0.00 0.00 0.00 0.00 0.00 0.00 0.00 0.00 0.01 0.00 0.00 0.00 0.00 0.00 0.00 0.00 0.00
0.00 0.00 0.00 0.00 0.00 0.00 0.00 0.00 0.00 0.00 0.00 0.00 0.00 0.00 0.00 0.00 0.00 0.00 0.00 0.00 0.00 0.00 0.00 0.00 0.00 0.00 0.00 0.00 0.00 0.00 0.00 0.01 0.00 0.00 0.00 0.00 0.00 0.00 0.00 0.00 0.00 0.00 0.00 0.00 0.00 0.00 0.00 0.00 0.00
0.00 0.00 0.00 0.00 0.00 0.00 0.00 0.00 0.00 0.00 0.00 0.00 0.00 0.00 0.00 0.00 0.00 0.00 0.00 0.00 0.00 0.00 0.00 0.00 0.00 0.00 0.00 0.00 0.00 0.00 0.00 0.00 0.00 0.00 0.00 0.00 0.00 0.00 0.00 0.00 0.00 0.00 0.00 0.00 0.00 0.00 0.00 0.00 0.00
0.00 0.00 0.00 0.00 0.00 0.00 0.00 0.00 0.00 0.00 0.00 0.00 0.00 0.00 0.00 0.00 0.00 0.00 0.00 0.00 0.00 0.00 0.00 0.00 0.00 0.00 0.00 0.00 0.00 0.00 0.00 0.00 0.01 0.00 0.00 0.00 0.00 0.00 0.00 0.00 0.00 0.00 0.00 0.00 0.00 0.00 0.00 0.00 0.00
0.00 0.00 0.00 0.00 0.00 0.00 0.00 0.00 0.00 0.00 0.00 0.00 0.00 0.00 0.00 0.00 0.00 0.00 0.00 0.00 0.00 0.00 0.00 0.00 0.00 0.00 0.00 0.00 0.00 0.00 0.00 0.00 0.00 0.00 0.00 0.00 0.00 0.00 0.00 0.00 0.00 0.00 0.00 0.00 0.00 0.00 0.00 0.00 0.00
0.00 0.00 0.00 0.00 0.00 0.00 0.00 0.00 0.00 0.00 0.00 0.00 0.00 0.00 0.00 0.00 0.00 0.00 0.00 0.00 0.00 0.00 0.00 0.00 0.00 0.00 0.00 0.00 0.00 0.00 0.00 0.00 0.00 0.00 0.00 0.00 0.00 0.00 0.00 0.00 0.00 0.00 0.00 0.00 0.00 0.00 0.00 0.00 0.00
0.00 0.00 0.00 0.00 0.00 0.00 0.00 0.00 0.00 0.00 0.00 0.00 0.00 0.00 0.00 0.00 0.00 0.00 0.00 0.00 0.00 0.00 0.00 0.00 0.00 0.00 0.00 0.00 0.00 0.00 0.00 0.00 0.00 0.00 0.00 0.00 0.00 0.00 0.00 0.00 0.00 0.00 0.00 0.00 0.00 0.00 0.00 0.00 0.00
0.00 0.00 0.00 0.00 0.00 0.00 0.00 0.00 0.00 0.00 0.00 0.00 0.00 0.00 0.00 0.00 0.00 0.00 0.00 0.00 0.00 0.00 0.00 0.00 0.00 0.00 0.00 0.00 0.00 0.00 0.00 0.00 0.00 0.00 0.00 0.00 0.00 0.00 0.00 0.00 0.00 0.00 0.00 0.00 0.00 0.00 0.00 0.00 0.00
0.00 0.00 0.00 0.00 0.00 0.00 0.00 0.00 0.00 0.00 0.00 0.00 0.00 0.00 0.00 0.00 0.00 0.00 0.00 0.00 0.00 0.00 0.00 0.00 0.00 0.00 0.00 0.00 0.00 0.00 0.00 0.00 0.00 0.00 0.00 0.00 0.00 0.00 0.00 0.00 0.00 0.00 0.00 0.00 0.00 0.00 0.00 0.00 0.00
MSLP
1015.56 1015.27 1015.74 1015.90 1017.13 1017.92 1018.50 1018.79 1018.69 1019.14 1019.41 1019.72 1019.89 1020.19 1020.39 1020.87 1021.22 1022.17 1021.89 1022.01 1021.83 1021.94 1022.21 1022.50 1022.64 1022.85 1023.00 1023.15 1023.22 1023.19 1023.23 1023.20 1023.33 1023.41 1023.60 1023.88 1023.94 1023.98 1023.97 1024.03 1024.04 1024.11 1024.29 1024.42 1024.46 1024.64 1024.77 1024.91 1024.99
1015.54 1015.35 1015.78 1016.68 1017.73 1018.67 1018.98 1018.88 1018.94 1019.14 1019.55 1019.90 1020.09 1020.53 1020.74 1021.23 1021.36 1021.64 1021.90 1022.07 1021.88 1022.01 1022.33 1022.63 1022.98 1023.09 1023.22 1023.29 1023.37 1023.37 1023.35 1023.48 1023.60 1023.81 1023.99 1024.26 1024.24 1024.31 1024.44 1024.50 1024.60 1024.72 1024.83 1024.99 1024.90 1025.05 1025.26 1025.41 1025.47
1015.66 1015.41 1016.62 1017.48 1018.54 1018.86 1018.86 1018.79 1019.01 1019.56 1019.77 1019.87 1020.48 1020.83 1021.09 1021.38 1021.50 1021.60 1021.80 1021.96 1021.99 1022.08 1022.37 1022.66 1022.95 1023.30 1023.35 1023.41 1023.44 1023.56 1023.62 1023.84 1024.08 1024.22 1024.24 1024.42 1024.58 1024.78 1024.87 1024.96 1025.08 1025.18 1025.30 1025.37 1025.28 1025.48 1025.67 1025.84 1025.94
1015.78 1016.21 1017.80 1017.99 1018.63 1018.63 1018.61 1018.65 1019.07 1019.79 1019.97 1020.04 1020.49 1021.14 1021.32 1021.43 1021.44 1021.46 1021.74 1021.99 1022.07 1022.29 1022.55 1022.86 1023.05 1023.30 1023.53 1023.56 1023.59 1023.71 1023.86 1024.08 1024.35 1024.50 1024.67 1024.88 1025.11 1025.30 1025.36 1025.46 1025.48 1025.50 1025.70 1025.76 1025.84 1025.93 1026.16 1026.26 1026.32
1016.36 1017.33 1018.24 1018.76 1018.73 1018.61 1018.62 1018.67 1019.11 1019.71 1019.92 1020.30 1020.58 1021.25 1021.52 1021.66 1021.64 1021.74 1021.92 1022.09 1022.32 1022.42 1022.62 1023.06 1023.21 1023.45 1023.75 1023.91 1023.85 1023.94 1024.12 1024.26 1024.55 1024.85 1025.09 1025.27 1025.36 1025.48 1025.69 1025.82 1025.91 1026.01 1026.08 1026.26 1026.34 1026.44 1026.59 1026.65 1026.70
1016.94 1017.90 1018.73 1019.11 1018.86 1018.62 1018.60 1018.74 1019.06 1019.55 1020.04 1020.51 1020.79 1021.06 1021.55 1021.86 1021.89 1022.08 1022.21 1022.46 1022.49 1022.56 1022.88 1023.17 1023.38 1023.62 1023.84 1024.07 1024.16 1024.16 1024.31 1024.61 1024.80 1025.09 1025.32 1025.52 1025.60 1025.82 1026.04 1026.18 1026.40 1026.52 1026.60 1026.68 1026.76 1026.85 1026.94 1026.96 1026.99
1016.96 1018.22 1018.78 1018.87 1018.89 1018.65 1018.51 1018.85 1019.09 1019.45 1019.90 1020.34 1020.47 1021.18 1021.64 1021.96 1022.08 1022.38 1022.68 1022.69 1022.74 1022.93 1023.23 1023.39 1023.54 1023.84 1024.12 1024.44 1024.62 1024.66 1024.67 1024.71 1025.02 1025.27 1025.56 1025.85 1026.07 1026.22 1026.37 1026.55 1026.76 1026.90 1026.97 1027.09 1027.22 1027.35 1027.47 1027.53 1027.54
1017.44 1018.18 1018.89 1018.82 1018.84 1018.51 1018.53 1018.92 1018.76 1019.14 1019.93 1020.17 1020.27 1020.78 1021.46 1021.48 1022.12 1022.66 1022.99 1023.09 1023.10 1023.20 1023.60 1023.79 1023.85 1024.11 1024.58 1024.82 1024.94 1024.87 1025.08 1025.30 1025.56 1025.66 1025.77 1026.12 1026.39 1026.57 1026.73 1026.90 1027.03 1027.13 1027.23 1027.39 1027.48 1027.59 1027.68 1027.72 1027.77
1017.48 1018.44 1018.89 1018.59 1018.85 1018.30 1018.46 1018.81 1019.07 1019.30 1019.79 1020.21 1020.33 1020.39 1020.53 1021.37 1022.16 1022.77 1023.26 1023.39 1023.40 1023.58 1023.86 1024.00 1024.10 1024.39 1024.83 1025.14 1025.53 1025.60 1025.54 1025.71 1026.01 1026.28 1026.51 1026.56 1026.70 1026.87 1026.96 1027.15 1027.31 1027.39 1027.52 1027.62 1027.79 1027.90 1027.94 1028.05 1028.12
1018.04 1018.23 1018.46 1018.17 1018.29 1018.24 1018.27 1018.50 1018.94 1019.38 1019.90 1020.24 1020.55 1020.76 1020.98 1021.51 1022.10 1022.68 1023.20 1023.27 1023.34 1023.58 1024.03 1024.02 1024.25 1024.64 1025.02 1025.34 1025.68 1025.87 1026.17 1026.18 1026.26 1026.59 1026.84 1027.08 1027.18 1027.30 1027.51 1027.69 1027.74 1027.81 1027.79 1027.81 1027.94 1028.15 1028.26 1028.21 1028.17
1018.50 1018.20 1018.30 1018.62 1018.28 1018.27 1018.36 1018.61 1018.81 1019.14 1019.92 1019.54 1019.75 1020.50 1021.02 1021.51 1021.98 1022.55 1023.19 1023.30 1023.08 1023.38 1023.97 1024.17 1024.28 1024.52 1025.00 1025.50 1025.77 1026.13 1026.41 1026.53 1026.67 1026.72 1026.88 1027.07 1027.28 1027.48 1027.65 1027.91 1028.11 1028.20 1028.34 1028.27 1028.31 1028.31 1028.30 1028.34 1028.30
1018.63 1018.54 1018.29 1018.47 1018.28 1018.27 1018.41 1018.52 1018.68 1018.87 1018.61 1018.79 1019.07 1019.87 1020.64 1021.16 1021.67 1022.12 1022.92 1023.33 1023.39 1023.50 1023.86 1024.28 1024.26 1024.49 1024.92 1025.34 1025.81 1026.12 1026.37 1026.69 1026.81 1026.98 1027.16 1027.28 1027.47 1027.67 1027.83 1028.02 1028.24 1028.29 1028.41 1028.39 1028.42 1028.38 1028.40 1028.43 1028.52
1018.39 1018.69 1018.74 1018.18 1018.16 1018.16 1018.21 1018.34 1018.42 1018.67 1018.57 1018.74 1019.34 1020.20 1020.60 1020.97 1021.51 1021.94 1022.39 1023.06 1023.43 1023.76 1023.80 1023.99 1024.52 1024.44 1024.68 1025.04 1025.59 1025.91 1026.33 1026.65 1026.79 1027.07 1027.22 1027.35 1027.54 1027.74 1028.00 1028.15 1028.25 1028.29 1028.38 1028.41 1028.48 1028.53 1028.53 1028.49 1028.49
1018.56 1018.81 1018.41 1018.12 1018.11 1017.98 1018.22 1018.42 1018.50 1018.26 1018.67 1019.24 1019.58 1020.03 1020.40 1020.56 1021.08 1021.81 1022.22 1022.60 1023.15 1023.54 1023.82 1023.80 1023.94 1024.65 1024.85 1025.06 1025.35 1025.62 1026.04 1026.36 1026.72 1026.98 1027.14 1027.35 1027.49 1027.73 1027.91 1028.10 1028.17 1028.25 1028.35 1028.41 1028.45 1028.50 1028.55 1028.58 1028.58
1018.78 1018.65 1018.40 1018.06 1018.11 1018.20 1018.10 1018.56 1018.32 1018.54 1019.02 1019.57 1019.96 1020.27 1020.58 1020.70 1021.19 1021.11 1021.60 1022.13 1022.51 1022.95 1023.46 1023.95 1023.90 1023.94 1024.64 1025.04 1025.35 1025.66 1025.97 1026.23 1026.43 1026.73 1027.05 1027.23 1027.47 1027.74 1027.95 1028.01 1028.12 1028.18 1028.33 1028.38 1028.43 1028.47 1028.55 1028.46 1028.52
1019.19 1019.43 1019.50 1018.71 1018.52 1018.60 1018.56 1018.32 1017.97 1018.65 1019.19 1019.78 1019.96 1020.27 1020.59 1020.64 1020.69 1021.12 1021.44 1021.90 1022.30 1022.70 1023.09 1023.39 1023.83 1024.19 1024.45 1024.58 1025.09 1025.55 1025.88 1026.17 1026.34 1026.55 1026.79 1027.03 1027.28 1027.49 1027.73 1027.91 1028.00 1028.10 1028.15 1028.23 1028.30 1028.31 1028.29 1028.33 1028.20
1020.05 1020.06 1020.12 1019.38 1018.68 1018.94 1018.93 1018.59 1018.28 1018.88 1019.35 1019.75 1020.02 1020.20 1020.30 1020.59 1020.70 1020.87 1021.19 1021.47 1021.97 1022.37 1022.84 1023.14 1023.42 1023.77 1024.21 1024.69 1024.95 1025.25 1025.60 1025.92 1026.16 1026.42 1026.52 1026.69 1026.94 1027.21 1027.45 1027.67 1027.77 1027.93 1028.03 1028.20 1028.24 1028.33 1028.37 1028.41 1028.32
1019.82 1020.06 1019.81 1019.27 1019.04 1019.04 1019.31 1019.02 1018.20 1018.90 1019.60 1019.66 1019.95 1020.19 1020.17 1020.09 1019.83 1020.14 1020.58 1020.96 1021.54 1022.03 1022.50 1022.85 1023.10 1023.49 1023.84 1024.31 1024.87 1025.23 1025.39 1025.64 1025.80 1025.90 1026.09 1026.31 1026.58 1026.86 1027.04 1027.22 1027.50 1027.78 1027.95 1027.99 1028.13 1028.25 1028.39 1028.32 1028.23
1019.14 1019.63 1019.82 1019.56 1019.39 1019.46 1019.48 1019.16 1018.37 1018.55 1019.34 1019.67 1019.82 1019.83 1019.87 1019.88 1019.53 1019.80 1020.20 1020.49 1020.88 1021.42 1021.96 1022.32 1022.78 1023.01 1023.60 1024.26 1024.63 1025.05 1024.99 1025.15 1025.31 1025.45 1025.59 1025.88 1026.12 1026.34 1026.57 1026.75 1027.08 1027.39 1027.64 1027.75 1027.86 1028.10 1028.26 1028.31 1028.33
1019.22 1019.84 1020.16 1019.88 1019.67 1019.85 1019.71 1019.21 1018.30 1018.34 1018.37 1018.65 1019.07 1019.56 1019.28 1019.56 1019.50 1019.40 1019.66 1020.00 1020.36 1020.60 1020.88 1021.55 1021.93 1022.50 1022.86 1023.37 1023.67 1023.99 1024.29 1024.39 1024.35 1024.60 1024.95 1025.22 1025.57 1025.86 1026.11 1026.26 1026.65 1027.04 1027.29 1027.57 1027.78 1027.93 1028.11 1028.18 1028.30
1019.47 1019.98 1020.49 1020.48 1020.05 1019.93 1019.95 1019.10 1018.15 1017.80 1017.90 1018.04 1018.28 1018.45 1019.02 1018.93 1018.71 1019.02 1019.31 1019.56 1019.67 1019.88 1020.06 1020.50 1020.85 1021.37 1021.93 1022.40 1023.11 1023.72 1023.99 1024.29 1024.46 1024.63 1024.65 1024.74 1024.99 1025.22 1025.61 1025.87 1026.07 1026.48 1026.80 1027.17 1027.41 1027.62 1027.79 1028.02 1028.47
1019.73 1020.04 1020.59 1021.01 1020.71 1020.54 1020.11 1019.16 1017.86 1017.78 1017.45 1017.25 1017.39 1017.92 1017.82 1018.02 1017.92 1018.26 1018.56 1018.91 1019.09 1018.93 1019.30 1019.83 1020.23 1020.61 1020.96 1021.42 1022.26 1022.69 1022.96 1023.26 1023.46 1023.61 1023.68 1024.29 1024.58 1024.85 1025.21 1025.52 1025.70 1026.11 1026.48 1026.77 1027.09 1027.36 1027.63 1027.99 1028.46
1019.74 1019.97 1021.04 1021.41 1021.16 1021.08 1020.66 1020.49 1017.67 1017.26 1017.04 1016.88 1016.57 1016.79 1016.56 1016.76 1016.85 1017.19 1017.56 1017.73 1018.05 1018.53 1018.66 1018.88 1019.37 1019.73 1020.10 1020.56 1021.09 1021.66 1022.09 1022.35 1022.59 1023.22 1023.64 1024.34 1024.60 1024.86 1025.13 1025.36 1025.74 1026.15 1026.56 1026.84 1027.08 1027.50 1027.74 1028.04 1028.37
1020.18 1020.74 1021.77 1022.29 1022.15 1021.67 1020.50 1020.44 1017.11 1016.99 1016.23 1015.77 1015.41 1015.38 1015.25 1015.59 1015.95 1016.32 1016.78 1017.37 1017.41 1017.78 1018.28 1018.49 1018.78 1019.00 1019.46 1019.91 1020.31 1020.66 1021.08 1021.74 1022.25 1022.96 1023.67 1024.24 1024.72 1025.21 1025.44 1025.57 1026.00 1026.30 1026.84 1027.24 1027.71 1027.97 1028.06 1028.30 1028.78
1020.05 1021.25 1023.04 1024.04 1023.43 1021.82 1020.44 1020.18 1016.17 1015.61 1015.02 1014.45 1014.33 1014.24 1014.24 1014.65 1015.30 1015.75 1016.37 1016.64 1016.69 1017.02 1017.63 1018.01 1018.37 1018.83 1019.06 1019.39 1019.74 1020.17 1020.47 1020.86 1021.34 1022.01 1023.02 1023.99 1024.53 1025.17 1025.36 1025.81 1026.29 1026.80 1027.07 1027.59 1028.03 1028.34 1028.90 1028.88 1029.25
1020.04 1020.43 1021.45 1022.26 1022.79 1021.75 1020.83 1018.27 1014.90 1013.73 1013.13 1013.41 1013.44 1013.94 1014.30 1014.75 1014.92 1015.21 1015.31 1015.77 1016.22 1016.77 1017.34 1017.80 1017.94 1018.45 1018.76 1018.89 1019.10 1019.57 1020.09 1020.55 1020.97 1021.71 1022.41 1023.04 1023.80 1024.58 1025.21 1025.97 1026.62 1027.07 1027.19 1027.64 1028.19 1028.76 1029.30 1029.57 1029.94
1020.09 1020.17 1020.65 1021.49 1022.52 1021.66 1019.28 1016.95 1015.02 1013.57 1012.91 1012.74 1012.84 1013.57 1013.74 1014.06 1014.40 1014.79 1015.16 1015.56 1016.08 1016.83 1017.05 1017.49 1017.79 1018.16 1018.62 1018.74 1018.82 1019.13 1019.70 1020.19 1020.54 1021.38 1022.24 1022.94 1023.50 1024.46 1025.23 1025.77 1026.41 1026.89 1027.57 1028.21 1028.63 1029.02 1029.48 1029.94 1030.37
1018.04 1019.47 1020.45 1021.24 1021.98 1021.18 1018.66 1017.05 1014.48 1013.35 1012.83 1012.21 1012.12 1012.52 1013.27 1013.95 1014.50 1014.95 1015.21 1015.43 1015.76 1016.11 1016.66 1017.41 1017.65 1017.88 1018.23 1018.75 1018.78 1018.94 1019.43 1019.85 1020.27 1020.80 1021.83 1022.94 1023.65 1024.36 1025.14 1025.87 1026.27 1026.89 1027.74 1028.41 1028.95 1029.59 1030.06 1030.40 1030.86
1018.06 1018.51 1019.22 1019.96 1020.25 1019.83 1018.74 1016.00 1013.23 1012.37 1011.91 1011.80 1012.10 1012.66 1013.11 1013.55 1014.09 1014.36 1014.59 1014.87 1015.60 1016.16 1016.79 1017.19 1017.62 1017.89 1018.09 1018.44 1018.82 1018.66 1018.97 1019.70 1020.51 1020.87 1021.54 1022.48 1023.65 1024.19 1025.01 1025.97 1026.30 1026.97 1027.70 1028.40 1028.95 1029.54 1029.94 1030.39 1030.96
1016.45 1016.87 1017.91 1018.22 1019.29 1019.32 1018.56 1015.06 1012.54 1012.26 1012.09 1012.13 1012.27 1012.43 1012.77 1013.58 1013.92 1014.28 1014.87 1015.11 1015.34 1015.99 1016.57 1017.08 1017.50 1017.86 1018.01 1018.22 1018.68 1019.04 1019.14 1019.33 1020.21 1021.18 1021.43 1022.13 1023.46 1024.49 1024.88 1025.97 1026.77 1027.45 1028.12 1028.62 1028.96 1029.40 1030.06 1030.46 1031.07
Thickness
5726 5730 5730 5728 5702 5693 5682 5690 5701 5697 5698 5697 5698 5694 5692 5687 5686 5675 5685 5683 5682 5682 5679 5677 5679 5680 5681 5681 5681 5684 5687 5689 5689 5688 5687 5686 5687 5687 5688 5688 5688 5687 5686 5686 5685 5683 5682 5680 5680
5723 5726 5725 5710 5685 5675 5680 5691 5694 5699 5700 5696 5697 5693 5690 5682 5687 5685 5683 5683 5683 5682 5680 5678 5677 5679 5680 5681 5681 5684 5686 5687 5686 5684 5684 5683 5684 5684 5685 5685 5684 5682 5682 5681 5682 5681 5679 5677 5675
5719 5723 5708 5690 5672 5676 5679 5691 5697 5695 5696 5700 5692 5691 5687 5682 5687 5688 5687 5683 5683 5682 5682 5681 5680 5678 5679 5681 5684 5685 5685 5684 5683 5681 5682 5683 5682 5682 5681 5681 5680 5679 5679 5679 5679 5678 5676 5675 5673
5711 5710 5695 5683 5679 5687 5691 5697 5697 5691 5695 5699 5693 5685 5687 5689 5689 5691 5688 5684 5684 5683 5682 5680 5681 5681 5679 5681 5684 5685 5684 5683 5681 5679 5679 5680 5679 5678 5678 5677 5677 5677 5677 5677 5676 5676 5673 5672 5670
5702 5690 5673 5670 5677 5686 5689 5697 5695 5692 5692 5692 5692 5681 5681 5685 5689 5690 5687 5685 5685 5684 5683 5680 5681 5683 5680 5679 5681 5682 5682 5681 5681 5679 5678 5678 5677 5678 5677 5676 5676 5675 5675 5674 5674 5673 5671 5670 5669
5687 5681 5664 5664 5671 5684 5691 5694 5698 5695 5691 5688 5688 5686 5683 5685 5686 5686 5685 5683 5684 5685 5683 5681 5682 5682 5681 5679 5678 5681 5682 5681 5680 5679 5678 5677 5677 5676 5675 5674 5673 5673 5672 5671 5671 5670 5669 5668 5668
5682 5671 5664 5668 5671 5681 5690 5691 5693 5693 5690 5689 5694 5683 5684 5682 5685 5685 5682 5681 5683 5683 5682 5682 5682 5682 5682 5679 5675 5676 5678 5680 5679 5678 5676 5675 5675 5675 5674 5673 5671 5670 5670 5669 5668 5667 5665 5664 5663
5676 5672 5663 5669 5671 5680 5688 5690 5699 5698 5690 5694 5696 5684 5683 5690 5685 5683 5680 5681 5681 5682 5680 5680 5681 5680 5678 5678 5678 5677 5676 5677 5677 5677 5677 5676 5675 5674 5674 5672 5671 5670 5669 5668 5667 5667 5665 5664 5663
5679 5658 5658 5673 5669 5685 5685 5689 5691 5693 5690 5692 5694 5695 5696 5692 5687 5681 5678 5678 5680 5681 5678 5678 5679 5679 5678 5677 5676 5675 5676 5676 5675 5674 5674 5675 5674 5673 5673 5672 5671 5670 5668 5667 5666 5665 5665 5663 5662
5664 5660 5667 5681 5679 5684 5685 5690 5687 5689 5687 5689 5689 5691 5692 5690 5688 5681 5677 5678 5680 5681 5678 5679 5678 5676 5677 5676 5675 5675 5674 5674 5675 5674 5673 5673 5673 5673 5671 5669 5669 5668 5668 5667 5665 5663 5661 5661 5659
5658 5663 5671 5671 5680 5685 5687 5688 5687 5685 5681 5690 5693 5691 5691 5688 5688 5683 5679 5680 5684 5682 5680 5679 5678 5678 5676 5675 5674 5673 5672 5673 5673 5674 5674 5672 5672 5670 5669 5667 5665 5664 5664 5663 5662 5661 5660 5659 5657
5650 5658 5665 5671 5674 5683 5683 5684 5686 5689 5695 5700 5703 5698 5694 5691 5688 5686 5680 5678 5681 5682 5681 5679 5680 5678 5677 5676 5675 5673 5672 5672 5672 5671 5672 5672 5670 5668 5667 5665 5663 5662 5660 5660 5659 5659 5658 5655 5653
5650 5652 5656 5668 5673 5679 5682 5685 5689 5687 5694 5698 5697 5693 5692 5693 5690 5688 5687 5682 5681 5679 5682 5682 5679 5679 5678 5677 5676 5675 5672 5670 5671 5670 5669 5669 5668 5667 5665 5663 5661 5661 5659 5658 5656 5654 5654 5653 5652
5647 5645 5653 5662 5667 5675 5676 5679 5685 5694 5690 5691 5693 5691 5692 5695 5692 5688 5686 5685 5683 5682 5681 5683 5683 5679 5678 5677 5676 5675 5673 5672 5671 5669 5669 5668 5666 5665 5663 5661 5660 5659 5657 5656 5654 5652 5651 5649 5648
5642 5643 5649 5657 5661 5666 5674 5672 5680 5687 5686 5685 5687 5687 5688 5692 5690 5692 5690 5687 5686 5685 5684 5681 5682 5684 5681 5679 5676 5674 5673 5672 5672 5671 5669 5668 5666 5663 5661 5659 5657 5656 5654 5653 5651 5650 5648 5646 5643
5632 5631 5626 5648 5653 5655 5662 5661 5685 5676 5681 5681 5684 5684 5684 5689 5690 5688 5690 5688 5687 5686 5684 5684 5681 5680 5679 5680 5679 5677 5674 5671 5670 5670 5669 5667 5664 5662 5660 5657 5656 5654 5653 5651 5649 5647 5646 5644 5642
5612 5611 5614 5628 5645 5647 5649 5657 5672 5668 5673 5678 5679 5682 5684 5684 5686 5688 5688 5688 5686 5685 5683 5683 5683 5681 5680 5677 5676 5676 5674 5672 5669 5667 5667 5666 5663 5660 5658 5655 5653 5652 5650 5648 5646 5644 5641 5639 5637
5607 5613 5620 5625 5634 5637 5636 5646 5663 5665 5664 5673 5673 5674 5680 5686 5692 5690 5688 5688 5686 5684 5682 5682 5683 5681 5679 5678 5675 5673 5673 5671 5670 5669 5667 5665 5662 5659 5657 5655 5651 5648 5645 5643 5641 5639 5636 5635 5632
5619 5617 5618 5618 5625 5631 5626 5635 5658 5662 5659 5662 5667 5673 5678 5682 5686 5687 5687 5689 5689 5687 5684 5683 5681 5681 5677 5673 5672 5669 5671 5671 5670 5669 5668 5664 5661 5659 5656 5654 5649 5645 5642 5640 5638 5635 5632 5630 5626
5608 5604 5605 5613 5619 5617 5620 5629 5650 5652 5663 5664 5667 5665 5676 5676 5678 5685 5688 5688 5689 5689 5689 5685 5684 5679 5679 5675 5674 5672 5671 5672 5672 5670 5667 5664 5661 5658 5654 5651 5647 5643 5640 5636 5634 5631 5628 5626 5622
5599 5597 5598 5604 5612 5614 5615 5626 5645 5653 5655 5659 5660 5668 5666 5674 5682 5681 5682 5685 5687 5690 5691 5688 5687 5685 5681 5678 5673 5670 5669 5667 5666 5664 5664 5663 5660 5657 5653 5649 5646 5642 5638 5633 5629 5627 5624 5622 5615
5589 5597 5594 5595 5600 5599 5612 5605 5638 5648 5652 5657 5663 5660 5671 5673 5678 5683 5685 5684 5687 5692 5690 5689 5687 5686 5685 5680 5676 5673 5672 5669 5667 5666 5665 5659 5656 5654 5650 5646 5643 5638 5634 5630 5625 5621 5617 5614 5608
5588 5589 5587 5592 5595 5595 5597 5591 5625 5644 5645 5651 5661 5661 5672 5677 5682 5685 5687 5689 5687 5684 5688 5690 5689 5689 5687 5684 5680 5675 5672 5670 5669 5664 5660 5654 5651 5647 5644 5641 5636 5631 5626 5622 5619 5613 5609 5606 5601
5576 5574 5569 5568 5576 5573 5598 5593 5619 5640 5642 5657 5663 5668 5675 5681 5681 5684 5682 5680 5685 5684 5685 5687 5688 5687 5685 5683 5680 5678 5675 5669 5665 5660 5654 5649 5644 5639 5635 5633 5627 5624 5617 5612 5607 5603 5599 5595 5588
5568 5565 5548 5545 5553 5571 5579 5585 5640 5644 5646 5659 5666 5671 5678 5679 5678 5679 5678 5680 5686 5688 5684 5682 5682 5681 5680 5678 5676 5674 5672 5669 5665 5661 5652 5643 5639 5633 5629 5624 5619 5613 5609 5603 5597 5592 5584 5582 5576
5562 5569 5553 5546 5548 5573 5568 5602 5632 5647 5666 5658 5660 5658 5661 5668 5673 5676 5683 5684 5683 5681 5678 5675 5676 5674 5672 5673 5674 5670 5666 5662 5660 5655 5648 5644 5637 5630 5623 5616 5608 5603 5600 5594 5587 5580 5573 5568 5561
5546 5553 5560 5549 5478 5545 5583 5611 5632 5636 5650 5657 5656 5654 5661 5666 5669 5671 5672 5674 5672 5669 5671 5669 5668 5665 5664 5665 5667 5666 5661 5657 5655 5648 5642 5635 5630 5622 5614 5609 5601 5595 5587 5579 5573 5567 5560 5554 5547
5559 5557 5545 5538 5531 5541 5585 5595 5627 5640 5643 5658 5665 5659 5656 5657 5658 5657 5660 5663 5664 5664 5663 5659 5660 5660 5659 5655 5657 5657 5653 5650 5648 5643 5636 5625 5619 5613 5606 5598 5592 5585 5575 5567 5559 5551 5544 5538 5532
5545 5546 5548 5547 5540 5542 5545 5595 5624 5643 5647 5654 5654 5651 5647 5647 5649 5650 5653 5653 5654 5653 5650 5650 5649 5649 5649 5648 5645 5649 5648 5641 5634 5632 5627 5618 5608 5602 5595 5585 5580 5572 5564 5556 5548 5541 5535 5527 5520
5554 5554 5553 5549 5546 5532 5543 5588 5632 5629 5636 5638 5638 5641 5639 5635 5636 5638 5639 5641 5643 5642 5639 5638 5636 5637 5639 5639 5636 5634 5635 5635 5627 5619 5617 5609 5597 5588 5584 5573 5564 5556 5549 5542 5536 5530 5523 5517 5508